{"data":{"norad_id":68875,"intl_designator":"2026-095M","name":"KUIPER-00478","alt_names":[],"object_type":"PAYLOAD","status":"ACTIVE","operator":null,"country":"US","launch_date":"2026-04-28","launch_site_code":"AFETR","launch_vehicle":null,"mission":null,"orbit_class":"UNKNOWN","rcs_meters":null,"size_class":null,"mass_kg":null,"dimensions":null,"purposes":[],"wikipedia_slug":null,"has_3d_model":false,"image_url":null,"decayed_at":null,"tle_current":{"epoch":"2026-05-25T00:00:02.000160Z","epoch_age_seconds":71190,"freshness":"FRESH","line1":"1 68875U 26095M   26145.00002315  .00059913  00000+0  16349-2 0  9996","line2":"2 68875  51.8784 354.6566 0007521 217.1350   8.7471 15.36836853  4108","mean_motion":15.36836853,"eccentricity":0.0007521,"inclination_deg":51.8784,"raan_deg":354.6566,"arg_perigee_deg":217.135,"mean_anomaly_deg":8.7471,"bstar":0.0016349,"rev_number":410,"period_min":93.698950359567,"perigee_km":450.33041581278,"apogee_km":460.60952741949,"semimajor_km":6833.6069716161,"source":"CELESTRAK","updated_at":"2026-05-25T13:38:08.647609Z"}}}